KISSLEGG Weather Reports


time (UTC)temp
C
wind
direction
speed
KPH
gust
KPH
rain 1hr
cm
rain 24hr
cm
rain mn
cm
humidity
%
barometer
mb
20260504030212 11 360 0.0 0.0 0.00 0.00 0.00 78 1013.9
20260504023211 11 360 0.0 0.0 0.00 0.00 0.00 77 1013.9
20260504020212 11 360 0.0 0.0 0.00 0.00 0.00 77 1013.7
20260504013211 11 360 0.0 0.0 0.00 0.00 0.00 76 1013.7
20260504010211 11 360 0.0 0.0 0.00 0.00 0.00 77 1013.9
20260504003210 11 360 0.0 0.0 0.00 0.00 0.00 77 1014.2
20260504000208 11 360 0.0 0.0 0.00 0.00 0.00 74 1014.3
20260503233209 11 360 0.0 0.0 0.00 0.00 0.00 72 1014.4
20260503230209 12 360 0.0 0.0 0.00 0.00 0.00 72 1014.4
20260503223210 12 360 0.0 0.0 0.00 0.00 0.00 72 1014.4
20260503220212 12 360 0.0 0.0 0.00 0.00 0.00 70 1014.1
20260503213210 12 360 0.0 0.0 0.00 0.00 0.00 68 1013.9
20260503210211 13 360 0.0 0.0 0.00 0.00 0.00 67 1013.7
20260503203209 13 360 0.0 0.0 0.00 0.00 0.00 64 1013.4
20260503200211 14 360 0.0 0.0 0.00 0.00 0.00 61 1013.1
20260503193210 15 360 0.0 0.0 0.00 0.00 0.00 60 1012.8
20260503190210 15 286 0.0 0.0 0.00 0.00 0.00 57 1012.1
20260503183209 16 213 0.0 0.0 0.00 0.00 0.00 55 1012.1
20260503180210 20 360 0.0 0.0 0.00 0.00 0.00 49 1011.3
20260503173209 20 360 0.0 0.0 0.00 0.00 0.00 47 1011.2
20260503170211 20 360 0.0 0.0 0.00 0.00 0.00 46 1011.0
20260503160211 23 187 0.0 0.0 0.00 0.00 0.00 42 1011.0
20260503150209 23 360 0.0 0.0 0.00 0.00 0.00 36 1011.1
20260503140210 23 182 0.0 0.0 0.00 0.00 0.00 31 1011.3
20260503130210 23 219 0.0 0.0 0.00 0.00 0.00 35 1012.1
20260503120210 22 265 0.0 0.0 0.00 0.00 0.00 42 1012.6
20260503110210 21 360 0.0 0.0 0.00 0.00 0.00 46 1013.1
20260503100212 21 252 0.0 0.0 0.00 0.00 0.00 45 1013.7
20260503090210 20 360 0.0 0.0 0.00 0.00 0.00 53 1014.2
20260503080212 18 223 0.0 0.0 0.00 0.00 0.00 50 1014.4
20260503070211 16 360 0.0 0.0 0.00 0.00 0.00 52 1014.4
20260503060211 13 183 0.0 0.0 0.00 0.00 0.00 64 1014.6
20260503053211 12 183 0.0 0.0 0.00 0.00 0.00 67 1014.4
20260503050212 11 183 0.0 0.0 0.00 0.00 0.00 67 1014.5
20260503043211 11 360 0.0 0.0 0.00 0.00 0.00 69 1014.7
20260503040210 10 360 0.0 0.0 0.00 0.00 0.00 72 1014.7
20260503033211 11 360 0.0 0.0 0.00 0.00 0.00 73 1014.8